GW5236 Weather Reports


Display with metric or nautical units.
time (UTC)temp
F
wind
direction
speed
MPH
gust
MPH
rain 1hr
in
rain 24hr
in
rain mn
in
humidity
%
barometer
mb
20260831034520 68 249 0.0 0.0 0.00 0.00 0.00 94 1019.5
20260831034008 68 249 0.0 0.0 0.00 0.00 0.00 94 1019.6
20260831033510 68 249 0.0 0.0 0.00 0.00 0.00 94 1019.6
20260831033027 68 249 0.0 0.0 0.00 0.00 0.00 94 1019.5
20260831032512 68 249 0.0 0.0 0.00 0.00 0.00 94 1019.6
20260831032011 68 249 0.0 0.0 0.00 0.00 0.00 94 1019.6
20260831031527 68 249 0.0 0.0 0.00 0.00 0.00 94 1019.6
20260831031011 69 249 0.0 0.0 0.00 0.00 0.00 93 1019.6
20260831030512 69 249 0.0 0.0 0.00 0.00 0.00 93 1019.5
20260831030025 69 249 0.0 0.0 0.00 0.00 0.00 93 1019.7
20260831025512 69 249 0.0 0.0 0.00 0.00 0.00 93 1019.6
20260831025012 69 249 0.0 0.0 0.00 0.00 0.00 93 1019.6
20260831024518 69 249 0.0 0.0 0.00 0.00 0.00 93 1019.7
20260831024011 69 249 0.0 0.0 0.00 0.00 0.00 93 1019.6
20260831023512 69 249 0.0 0.0 0.00 0.00 0.00 93 1019.6
20260831023023 69 249 0.0 0.0 0.00 0.00 0.00 93 1019.6
20260831022514 69 249 0.0 0.0 0.00 0.00 0.00 92 1019.4
20260831022012 69 249 0.0 0.0 0.00 0.00 0.00 92 1019.5
20260831021533 70 249 0.0 0.0 0.00 0.00 0.00 92 1019.5
20260831021012 70 249 0.0 0.0 0.00 0.00 0.00 91 1019.5
20260831020511 70 249 0.0 0.0 0.00 0.00 0.00 91 1019.6
20260831020027 70 249 0.0 0.0 0.00 0.00 0.00 90 1019.7
20260831015512 70 249 0.0 0.0 0.00 0.00 0.00 90 1019.7
20260831015012 71 249 0.0 0.0 0.00 0.00 0.00 90 1019.8
20260831014529 71 249 0.0 0.0 0.00 0.00 0.00 90 1019.8
20260831014014 71 249 0.0 0.0 0.00 0.00 0.00 90 1019.8
20260831013507 71 249 0.0 0.0 0.00 0.00 0.00 90 1019.8
20260831013027 72 249 0.0 0.0 0.00 0.00 0.00 89 1019.7
20260831012511 72 249 0.0 0.0 0.00 0.00 0.00 88 1019.7
20260831012010 72 249 0.0 0.0 0.00 0.00 0.00 88 1019.7
20260831011526 72 249 0.0 0.0 0.00 0.00 0.00 88 1019.8
20260831011011 72 249 0.0 0.0 0.00 0.00 0.00 88 1019.8
20260831010503 73 249 0.0 0.0 0.00 0.00 0.00 87 1019.8
20260831010015 73 249 0.0 0.0 0.00 0.00 0.00 87 1019.8
20260831005504 73 249 0.0 2.0 0.00 0.00 0.00 87 1019.7
20260831005004 73 249 0.0 2.0 0.00 0.00 0.00 87 1019.7
20260831004516 74 249 0.0 2.0 0.00 0.00 0.00 86 1019.6
20260831004008 74 249 0.0 0.0 0.00 0.00 0.00 86 1019.7
20260831003508 74 249 0.0 0.0 0.00 0.00 0.00 85 1019.6
20260831003019 75 249 0.0 0.0 0.00 0.00 0.00 84 1019.5
20260831002508 75 249 0.0 0.0 0.00 0.00 0.00 84 1019.2
20260831002012 76 249 0.0 0.0 0.00 0.00 0.00 82 1019.2
20260831001527 76 249 0.0 0.0 0.00 0.00 0.00 82 1019.2
20260831001012 77 249 0.0 0.0 0.00 0.00 0.00 80 1019.3
20260831000504 77 249 0.0 2.0 0.00 0.00 0.00 79 1019.3
20260831000010 78 249 0.0 2.0 0.00 0.00 0.00 79 1019.3
20260830235503 79 179 0.0 2.0 0.00 0.00 0.00 79 1019.3
20260830235003 79 179 0.0 0.0 0.00 0.00 0.00 79 1019.2
20260830234512 79 179 0.0 2.0 0.00 0.00 0.00 79 1019.2
20260830234008 80 179 0.0 2.0 0.00 0.00 0.00 78 1019.2
20260830233505 80 179 0.0 2.0 0.00 0.00 0.00 76 1019.0
20260830233020 80 179 0.0 2.0 0.00 0.00 0.00 75 1018.8
20260830232510 80 175 0.0 2.0 0.00 0.00 0.00 75 1018.7
20260830232010 80 175 0.0 2.0 0.00 0.00 0.00 75 1018.8
20260830231530 80 175 0.0 2.0 0.00 0.00 0.00 77 1018.7
20260830231009 80 123 0.0 2.0 0.00 0.00 0.00 74 1018.6
20260830230513 81 123 0.0 2.0 0.00 0.00 0.00 76 1018.5
20260830230028 81 123 0.0 2.0 0.00 0.00 0.00 76 1018.4
20260830225503 81 123 0.0 2.0 0.00 0.00 0.00 75 1018.4
20260830225005 81 123 0.0 2.0 0.00 0.00 0.00 73 1018.3
20260830224508 82 123 0.0 4.0 0.00 0.00 0.00 72 1018.3
20260830224004 82 191 2.0 4.0 0.00 0.00 0.00 68 1018.1
20260830223505 83 124 1.0 4.0 0.00 0.00 0.00 71 1018.1
20260830223032 83 143 1.0 2.0 0.00 0.00 0.00 70 1018.2
20260830222506 83 131 1.0 3.0 0.00 0.00 0.00 69 1018.4
20260830222014 83 137 2.0 4.0 0.00 0.00 0.00 68 1018.3
20260830221518 83 130 2.0 4.0 0.00 0.00 0.00 68 1018.3
20260830221011 83 207 2.0 4.0 0.00 0.00 0.00 67 1018.4
20260830220510 83 115 1.0 5.0 0.00 0.00 0.00 69 1018.4
20260830220027 82 123 2.0 5.0 0.00 0.00 0.00 68 1018.3
20260830215514 82 114 1.0 3.0 0.00 0.00 0.00 70 1018.3
20260830215020 82 118 2.0 3.0 0.00 0.00 0.00 72 1018.3
20260830214508 82 117 1.0 3.0 0.00 0.00 0.00 72 1018.5
20260830214003 82 130 1.0 3.0 0.00 0.00 0.00 72 1018.4
20260830213503 82 143 2.0 3.0 0.00 0.00 0.00 72 1018.5
20260830213010 82 117 0.0 2.0 0.00 0.00 0.00 73 1018.5
20260830212506 82 105 1.0 2.0 0.00 0.00 0.00 74 1018.3
20260830212006 82 122 1.0 2.0 0.00 0.00 0.00 74 1018.0
20260830211518 81 98 1.0 2.0 0.00 0.00 0.00 75 1018.1
20260830211008 81 101 1.0 3.0 0.00 0.00 0.00 74 1018.1
20260830210512 81 84 1.0 3.0 0.00 0.00 0.00 74 1018.0
20260830210031 80 91 1.0 4.0 0.00 0.00 0.00 76 1018.2
20260830205515 80 42 2.0 4.0 0.00 0.00 0.00 73 1018.0
20260830205012 80 235 0.0 6.0 0.00 0.00 0.00 74 1017.8
20260830204535 80 88 1.0 6.0 0.00 0.00 0.00 74 1017.7
20260830204014 80 293 1.0 5.0 0.00 0.00 0.00 74 1017.7
20260830203522 79 149 2.0 5.0 0.00 0.00 0.00 74 1017.6
20260830203010 79 63 1.0 3.0 0.00 0.00 0.00 74 1017.7
20260830202506 79 158 1.0 6.0 0.00 0.00 0.00 74 1017.8
20260830202008 79 76 2.0 6.0 0.00 0.00 0.00 74 1017.9
20260830201515 79 131 2.0 5.0 0.00 0.00 0.00 72 1018.1
20260830201008 79 76 1.0 4.0 0.00 0.00 0.00 73 1018.2
20260830200507 79 103 2.0 5.0 0.00 0.00 0.00 74 1018.3
20260830200023 79 118 2.0 5.0 0.00 0.00 0.00 74 1018.4
20260830195514 79 175 1.0 5.0 0.00 0.00 0.00 74 1018.5
20260830195011 79 109 2.0 5.0 0.00 0.00 0.00 74 1018.6
20260830194530 79 157 2.0 4.0 0.00 0.00 0.00 75 1018.9
20260830194013 78 179 1.0 3.0 0.00 0.00 0.00 74 1019.0
20260830193517 79 119 1.0 3.0 0.00 0.00 0.00 73 1019.1
20260830193030 79 87 1.0 3.0 0.00 0.00 0.00 73 1019.4
20260830192513 80 89 0.0 2.0 0.00 0.00 0.00 69 1020.1
20260830192004 81 79 1.0 2.0 0.00 0.00 0.00 69 1020.4
20260830191520 81 22 0.0 2.0 0.00 0.00 0.00 71 1020.5
20260830191008 81 22 0.0 2.0 0.00 0.00 0.00 67 1020.7
20260830190509 81 315 0.0 2.0 0.00 0.00 0.00 70 1020.9
20260830190018 81 325 0.0 2.0 0.00 0.00 0.00 69 1021.0
20260830185514 81 15 1.0 2.0 0.00 0.00 0.00 70 1021.1
20260830185012 81 5 0.0 2.0 0.00 0.00 0.00 68 1021.2
20260830184527 81 268 1.0 3.0 0.00 0.00 0.00 66 1021.2
20260830184014 82 280 2.0 3.0 0.00 0.00 0.00 67 1021.2
20260830183517 82 315 0.0 3.0 0.00 0.00 0.00 66 1021.3
20260830183031 82 344 1.0 3.0 0.00 0.00 0.00 65 1021.2
20260830182515 82 360 1.0 3.0 0.00 0.00 0.00 69 1021.3
20260830182014 82 258 0.0 3.0 0.00 0.00 0.00 69 1021.3
20260830181532 82 333 0.0 2.0 0.00 0.00 0.00 69 1021.3
20260830181007 82 44 1.0 3.0 0.00 0.00 0.00 69 1021.4
20260830180512 82 340 1.0 3.0 0.00 0.00 0.00 69 1021.4
20260830180019 82 290 1.0 3.0 0.00 0.00 0.00 69 1021.4
20260830175510 82 17 1.0 2.0 0.00 0.00 0.00 70 1021.5
20260830175011 81 136 0.0 4.0 0.00 0.00 0.00 72 1021.5
20260830174525 81 305 1.0 4.0 0.00 0.00 0.00 73 1021.5
20260830174012 81 275 1.0 3.0 0.00 0.00 0.00 74 1021.5
20260830173514 81 320 1.0 6.0 0.00 0.00 0.00 73 1021.4
20260830173031 81 313 1.0 6.0 0.00 0.00 0.00 70 1021.4
20260830172515 81 271 1.0 5.0 0.00 0.00 0.00 72 1021.3
20260830172016 81 262 1.0 4.0 0.00 0.00 0.00 74 1021.4
20260830171532 80 265 1.0 6.0 0.00 0.00 0.00 73 1021.4
20260830171016 80 270 2.0 6.0 0.00 0.00 0.00 73 1021.5
20260830170519 81 237 2.0 4.0 0.00 0.00 0.00 74 1021.5
20260830170015 81 304 2.0 4.0 0.00 0.00 0.00 73 1021.6
20260830165510 80 246 1.0 4.0 0.00 0.00 0.00 75 1021.7
20260830165007 79 244 0.0 4.0 0.00 0.00 0.00 77 1021.8
20260830164545 79 263 1.0 3.0 0.00 0.00 0.00 77 1021.9
20260830164012 78 275 1.0 3.0 0.00 0.00 0.00 80 1022.0
20260830163512 78 266 0.0 3.0 0.00 0.00 0.00 80 1022.1
20260830163029 78 305 2.0 3.0 0.00 0.00 0.00 80 1022.1
20260830162513 78 294 0.0 2.0 0.00 0.00 0.00 82 1022.1
20260830162016 78 24 1.0 2.0 0.00 0.00 0.00 82 1022.1
20260830161529 77 300 0.0 2.0 0.00 0.00 0.00 82 1022.1
20260830161015 77 273 0.0 2.0 0.00 0.00 0.00 82 1022.2
20260830160503 77 277 0.0 2.0 0.00 0.00 0.00 82 1022.2
20260830160013 77 346 0.0 2.0 0.00 0.00 0.00 82 1022.2
20260830155508 77 299 0.0 2.0 0.00 0.00 0.00 1022.1
20260830155007 77 290 0.0 2.0 0.00 0.00 0.00 1022.1
20260830154519 77 295 0.0 2.0 0.00 0.00 0.00 1021.9
20260830154011 77 298 0.0 2.0 0.00 0.00 0.00 1021.9
20260830153515 77 264 1.0 2.0 0.00 0.00 0.00 1021.7
20260830153003 77 271 0.0 2.0 0.00 0.00 0.00 1021.6
20260830152503 77 277 0.0 2.0 0.00 0.00 0.00 1021.5
20260830152003 76 260 0.0 1.0 0.00 0.00 0.00 82 1021.4
20260830151504 76 151 0.0 1.0 0.00 0.00 0.00 82 1021.3
20260830151004 76 130 1.0 2.0 0.00 0.00 0.00 83 1021.2
20260830150508 76 122 1.0 2.0 0.00 0.00 0.00 81 1021.1
20260830150011 76 113 1.0 3.0 0.00 0.00 0.00 82 1021.0
20260830145508 75 211 1.0 3.0 0.00 0.00 0.00 82 1020.8
20260830145010 75 150 1.0 4.0 0.00 0.00 0.00 81 1020.6
20260830144516 75 188 2.0 4.0 0.00 0.00 0.00 83 1020.4
20260830144008 75 128 2.0 4.0 0.00 0.00 0.00 83 1020.4
20260830143510 74 174 1.0 3.0 0.00 0.00 0.00 83 1020.4
20260830143025 74 173 1.0 4.0 0.00 0.00 0.00 83 1020.4
20260830142512 73 202 1.0 6.0 0.00 0.00 0.00 83 1020.5
20260830142004 73 154 3.0 6.0 0.00 0.00 0.00 83 1020.3
20260830141504 73 109 3.0 4.0 0.00 0.00 0.00 84 1020.3
20260830141003 72 180 1.0 4.0 0.00 0.00 0.00 83 1020.2
20260830140503 72 126 2.0 4.0 0.00 0.00 0.00 84 1020.2
20260830140007 72 121 2.0 4.0 0.00 0.00 0.00 84 1020.3
20260830135504 72 136 2.0 3.0 0.00 0.00 0.00 84 1020.3
20260830135007 72 130 1.0 3.0 0.00 0.00 0.00 84 1020.4
20260830134525 72 107 2.0 5.0 0.00 0.00 0.00 84 1020.4
20260830134008 72 142 1.0 5.0 0.00 0.00 0.00 84 1020.3
20260830133509 72 121 2.0 5.0 0.00 0.00 0.00 83 1020.3
20260830133024 72 138 3.0 5.0 0.00 0.00 0.00 83 1020.2
20260830132513 72 148 2.0 4.0 0.00 0.00 0.00 82 1020.2
20260830132012 72 113 2.0 4.0 0.00 0.00 0.00 82 1020.2
20260830131526 72 138 2.0 4.0 0.00 0.00 0.00 82 1020.3
20260830131007 71 127 2.0 4.0 0.00 0.00 0.00 83 1020.2
20260830130504 71 194 1.0 3.0 0.00 0.00 0.00 85 1020.3
20260830130014 70 151 1.0 3.0 0.00 0.00 0.00 87 1020.3
20260830125505 69 137 1.0 3.0 0.00 0.00 0.00 87 1020.3
20260830125004 69 141 1.0 2.0 0.00 0.00 0.00 88 1020.3
20260830124513 68 187 1.0 2.0 0.00 0.00 0.00 89 1020.4
20260830124008 67 193 0.0 2.0 0.00 0.00 0.00 91 1020.4
20260830123508 66 134 0.0 2.0 0.00 0.00 0.00 93 1020.3
20260830123018 66 138 0.0 2.0 0.00 0.00 0.00 94 1020.4
20260830122510 66 180 0.0 2.0 0.00 0.00 0.00 94 1020.3
20260830122011 65 180 0.0 2.0 0.00 0.00 0.00 96 1020.3
20260830121533 65 268 0.0 0.0 0.00 0.00 0.00 96 1020.3
20260830121014 65 268 0.0 0.0 0.00 0.00 0.00 96 1020.3
20260830120514 65 268 0.0 0.0 0.00 0.00 0.00 96 1020.4
20260830120031 65 268 0.0 0.0 0.00 0.00 0.00 96 1020.4
20260830115504 65 268 0.0 0.0 0.00 0.00 0.00 96 1020.4
20260830115004 65 268 0.0 0.0 0.00 0.00 0.00 96 1020.5
20260830114511 65 268 0.0 0.0 0.00 0.00 0.00 96 1020.5
20260830114010 65 268 0.0 2.0 0.00 0.00 0.00 96 1020.6
20260830113505 65 268 0.0 2.0 0.00 0.00 0.00 96 1020.6
20260830113019 65 268 0.0 2.0 0.00 0.00 0.00 96 1020.6
20260830112511 64 268 0.0 2.0 0.00 0.00 0.00 96 1020.6
20260830112010 64 268 0.0 0.0 0.00 0.00 0.00 96 1020.5
20260830111521 64 268 0.0 0.0 0.00 0.00 0.00 96 1020.5
20260830111013 64 268 0.0 2.0 0.00 0.00 0.00 96 1020.5
20260830110515 64 268 0.0 2.0 0.00 0.00 0.00 96 1020.5
20260830110032 64 268 0.0 2.0 0.00 0.00 0.00 96 1020.3
20260830105516 64 267 0.0 2.0 0.00 0.00 0.00 96 1020.3
20260830105015 64 268 0.0 2.0 0.00 0.00 0.00 96 1020.4
20260830104510 64 268 0.0 2.0 0.00 0.00 0.00 96 1020.4
20260830104004 64 269 0.0 2.0 0.00 0.00 0.00 97 1020.4
20260830103506 64 268 1.0 2.0 0.00 0.00 0.00 97 1020.4
20260830103015 64 82 0.0 2.0 0.00 0.00 0.00 97 1020.3
20260830102506 64 82 0.0 2.0 0.00 0.00 0.00 97 1020.2
20260830102009 64 82 0.0 1.0 0.00 0.00 0.00 97 1020.1
20260830101523 64 82 0.0 0.0 0.00 0.00 0.00 97 1020.1
20260830101010 64 82 0.0 1.0 0.00 0.00 0.00 97 1020.2
20260830100512 64 82 0.0 1.0 0.00 0.00 0.00 97 1020.1
20260830100028 64 82 0.0 0.0 0.00 0.00 0.00 97 1020.2
20260830095513 64 82 0.0 0.0 0.00 0.00 0.00 97 1020.1
20260830095015 64 82 0.0 0.0 0.00 0.00 0.00 97 1020.1
20260830094536 64 82 0.0 2.0 0.00 0.00 0.00 97 1020.1
20260830094017 64 82 0.0 2.0 0.00 0.00 0.00 97 1020.0
20260830093514 64 82 0.0 2.0 0.00 0.00 0.00 97 1020.0
20260830093011 64 82 0.0 0.0 0.00 0.00 0.00 97 1020.0
20260830092508 64 82 0.0 0.0 0.00 0.00 0.00 97 1020.0
20260830092011 64 82 0.0 0.0 0.00 0.00 0.00 97 1020.0
20260830091518 64 82 0.0 0.0 0.00 0.00 0.00 97 1020.0
20260830091011 64 82 0.0 0.0 0.00 0.00 0.00 97 1020.0
20260830090511 64 82 0.0 0.0 0.00 0.00 0.00 97 1020.0
20260830090027 64 82 0.0 0.0 0.00 0.00 0.00 97 1020.0
20260830085515 64 82 0.0 0.0 0.00 0.00 0.00 97 1020.2
20260830085014 64 82 0.0 0.0 0.00 0.00 0.00 97 1020.1
20260830084533 64 82 0.0 0.0 0.00 0.00 0.00 97 1020.2
20260830084017 64 82 0.0 0.0 0.00 0.00 0.00 97 1020.2
20260830083519 64 82 0.0 1.0 0.00 0.00 0.00 97 1020.3
20260830083031 64 82 0.0 1.0 0.00 0.00 0.00 98 1020.3
20260830082514 63 82 0.0 1.0 0.00 0.00 0.00 98 1020.3
20260830082005 63 82 0.0 1.0 0.00 0.00 0.00 97 1020.2
20260830081531 63 82 0.0 0.0 0.00 0.00 0.00 97 1020.3
20260830081010 63 82 0.0 0.0 0.00 0.00 0.00 97 1020.3
20260830080508 63 82 0.0 0.0 0.00 0.00 0.00 97 1020.3
20260830080021 63 82 0.0 0.0 0.00 0.00 0.00 97 1020.5
20260830075514 63 82 0.0 0.0 0.00 0.00 0.00 97 1020.3
20260830075013 63 82 0.0 0.0 0.00 0.00 0.00 97 1020.3
20260830074531 63 82 0.0 0.0 0.00 0.00 0.00 97 1020.4
20260830074014 62 82 0.0 0.0 0.00 0.00 0.00 97 1020.4
20260830073514 62 82 0.0 0.0 0.00 0.00 0.00 97 1020.4
20260830073030 62 82 0.0 0.0 0.00 0.00 0.00 97 1020.4
20260830072516 62 82 0.0 0.0 0.00 0.00 0.00 97 1020.4
20260830072018 62 82 0.0 0.0 0.00 0.00 0.00 97 1020.4
20260830071544 62 82 0.0 0.0 0.00 0.00 0.00 97 1020.5
20260830071008 62 82 0.0 0.0 0.00 0.00 0.00 97 1020.5
20260830070508 62 82 0.0 0.0 0.00 0.00 0.00 97 1020.4
20260830070023 62 82 0.0 0.0 0.00 0.00 0.00 97 1020.5
20260830065512 62 82 0.0 0.0 0.00 0.00 0.00 97 1020.5
20260830065014 61 82 0.0 0.0 0.00 0.00 0.00 97 1020.6
20260830064528 61 82 0.0 0.0 0.00 0.00 0.00 96 1020.6
20260830064016 61 82 0.0 0.0 0.00 0.00 0.00 96 1020.6
20260830063518 61 82 0.0 0.0 0.00 0.00 0.00 96 1020.7
20260830063038 61 82 0.0 0.0 0.00 0.00 0.00 96 1020.7
20260830062519 61 82 0.0 0.0 0.00 0.00 0.00 96 1020.7
20260830062022 62 82 0.0 0.0 0.00 0.00 0.00 96 1020.8
20260830061532 62 82 0.0 0.0 0.00 0.00 0.00 96 1020.8
20260830061015 62 82 0.0 0.0 0.00 0.00 0.00 96 1020.9
20260830060507 62 82 0.0 0.0 0.00 0.00 0.00 96 1020.9
20260830060022 62 82 0.0 0.0 0.00 0.00 0.00 96 1020.8
20260830055510 62 82 0.0 0.0 0.00 0.00 0.00 96 1020.7
20260830055009 62 82 0.0 0.0 0.00 0.00 0.00 96 1020.6
20260830054532 62 82 0.0 0.0 0.00 0.00 0.00 97 1020.8
20260830054001 62 82 0.0 0.0 0.00 0.00 0.00 96 1020.9
20260830053502 62 82 0.0 0.0 0.00 0.00 0.00 96 1020.8
20260830053006 62 82 0.0 0.0 0.00 0.00 0.00 95 1020.9
20260830052504 62 82 0.0 0.0 0.00 0.00 0.00 95 1020.9
20260830052004 62 82 0.0 0.0 0.00 0.00 0.00 95 1020.9
20260830051510 62 82 0.0 0.0 0.00 0.00 0.00 96 1020.7
20260830051008 62 82 0.0 0.0 0.00 0.00 0.00 96 1020.6
20260830050507 62 82 0.0 0.0 0.00 0.00 0.00 96 1020.7
20260830050019 62 82 0.0 0.0 0.00 0.00 0.00 95 1020.8
20260830045508 62 82 0.0 0.0 0.00 0.00 0.00 96 1020.8
20260830045010 62 82 0.0 0.0 0.00 0.00 0.00 96 1020.7
20260830044522 63 82 0.0 0.0 0.00 0.00 0.00 95 1020.6
20260830044011 63 82 0.0 0.0 0.00 0.00 0.00 95 1020.6
20260830043515 63 82 0.0 0.0 0.00 0.00 0.00 95 1020.5
20260830043004 63 82 0.0 0.0 0.00 0.00 0.00 95 1020.4
20260830042506 63 82 0.0 0.0 0.00 0.00 0.00 95 1020.3
20260830042004 63 82 0.0 0.0 0.00 0.00 0.00 95 1020.2
20260830041507 63 82 0.0 0.0 0.00 0.00 0.00 95 1020.3
20260830041006 63 82 0.0 0.0 0.00 0.00 0.00 95 1020.4
20260830040508 63 82 0.0 0.0 0.00 0.00 0.00 95 1020.3
20260830040020 63 82 0.0 0.0 0.00 0.00 0.00 94 1020.3
20260830035506 63 82 0.0 0.0 0.00 0.00 0.00 94 1020.4
20260830035008 63 82 0.0 0.0 0.00 0.00 0.00 95 1020.3